User: anonymous   Login
Location: Unspecified
(0.0000°N, 0.0000°E)
Time: 23:16:47
(UTC+00:00)
Language:

RASAT - Orbit

View from above orbital plane
View from above orbital plane
View from above satellite
View from above satellite

Ground track
Ground track

The orbit data is extracted from the following two-line orbital elements,

1 37791U 11044D   18051.73768926  .00000060  00000-0  20345-4 0  9994
2 37791  98.1269 145.7664 0023414  60.4172 299.9369 14.64650409348158
Epoch (UTC): 20 February 2018 17:42:16
Eccentricity: 0.0023414
inclination: 98.1269°
perigee height: 661 km
apogee height: 695 km
right ascension of ascending node: 145.7664°
argument of perigee: 60.4172°
revolutions per day: 14.64650409
mean anomaly at epoch: 299.9369°
orbit number at epoch: 34815

The dashed part of the orbit path shows where the satellite is in the earth's shadow,  

DLR